Miscellaneous Local Product
Issued by NWS North Platte, NE

Home | Current Version | Previous Version | Text Only | Print | Product List | Glossary On
Versions: 1 2 3 4 5 6 7 8 9 10 11 12 13 14 15 16 17 18 19 20 21 22 23 24 25 26 27 28 29 30 31 32 33 34 35 36 37 38 39 40 41 42 43 44 45 46 47 48 49 50
000
AXUS43 KLBF 311910
MISLBF


WESTERN AND NORTH CENTRAL NEBRASKA HOURLY WEATHER ROUNDUP
NATIONAL WEATHER SERVICE NORTH PLATTE NE
200 PM CDT TUE MAR 31 2015

***STATIONS NOT REPORTING VARIABLES SUCH AS SKY/WEATHER OR
PRESSURE ARE PROVIDED BY THE NEBRASKA DEPARTMENT OF
ROADS...RAWS...AND APRS NETWORKS...AND ARE NOT UNDER
NATIONAL WEATHER SERVICE QUALITY CONTROL***

...OBSERVATIONS IN AND NEAR THE EASTERN PANHANDLE OF NEBRASKA...

CITY           SKY/WX    TMP DP  RH WIND       PRES   REMARKS
PINE RIDGE     SUNNY     74  23  15 VRB6      29.87F
CHADRON        SUNNY     76  24  14 W10       29.86F
ALLIANCE       SUNNY     73  27  18 S13       29.92F
SIDNEY         SUNNY     74  25  16 SW13      29.96F
WHITECLAY        N/A     75  26  16 S14         N/A
CRESCENT LAKE    N/A     72  20  14 SW9         N/A
BIG SPRINGS      N/A     73  26  17 SW8         N/A
$$

...OBSERVATIONS IN NORTH CENTRAL NEBRASKA...

CITY           SKY/WX    TMP DP  RH WIND       PRES   REMARKS
VALENTINE      SUNNY     77  25  14 SW15G26   29.88F
THEDFORD       SUNNY     75  29  18 SW16      29.94F
AINSWORTH      SUNNY     76  27  16 SW14G23   29.91F
O`NEILL        SUNNY     75  31  19 SW15G21   29.92F
ORD            SUNNY     74  26  16 SW16G22   29.93F
BROKEN BOW     SUNNY     75  31  19 S12G24    29.95F
BROWNLEE         N/A     78  32  19 SW21        N/A
SPRINGVIEW       N/A     76  32  20 W12         N/A
BREWSTER         N/A     77  29  17 S16         N/A
ROSE             N/A     75  31  20 S15         N/A
NEWPORT          N/A     76  26  15 S13         N/A
SARGENT          N/A     73  30  20 SW8G15      N/A
COMSTOCK         N/A     82  28  14 S9          N/A
EWING            N/A     75  36  24 SW12G20     N/A
$$

...OBSERVATIONS IN SOUTHWEST NEBRASKA AND FAR NORTHEAST COLORADO...

CITY           SKY/WX    TMP DP  RH WIND       PRES   REMARKS
WRAY           FAIR      79  18  10 W7        29.96F
IMPERIAL         N/A     76  23  14 SW10G20   29.95F
OGALLALA       SUNNY     76  26  16 S9        29.94F
NORTH PLATTE   SUNNY     74  27  17 S13G22    29.95F
MCCOOK         SUNNY     77  25  14 S10G20    29.96F
LEXINGTON      SUNNY     74  30  19 S15       29.97F
PAXTON           N/A     72  32  22 S16         N/A
SUTHERLAND       N/A     79  29  16 SW10        N/A
BRADY            N/A     74  32  21 SE3         N/A
GOTHENBURG       N/A     71  27  19 S9          N/A
CALLAWAY         N/A     72  35  25 S16         N/A
$$

...NORTH PLATTE AREA...

CITY           SKY/WX    TMP DP  RH WIND       PRES   REMARKS
AIRPORT        SUNNY     74  27  17 S13G22    29.95F
DOWNTOWN         N/A     73  27  18 S10G17      N/A
$$

...SOME WEATHER OBSERVATIONS FROM AROUND THE REGION...

CITY           SKY/WX    TMP DP  RH WIND       PRES   REMARKS
DENVER         MOSUNNY   74  21  13 VRB7      30.00F
LARAMIE        SUNNY     65  11  12 W21G28    30.05F
CHEYENNE       SUNNY     68  16  13 SW12G21   30.01F
SCOTTSBLUFF    SUNNY     72  26  18 S7        29.93F
RAPID CITY     MOSUNNY   78  25  14 S20G26    29.81F
PIERRE         SUNNY     76  31  19 S10G18    29.81F
WINNER         FAIR      79  27  14 S15       29.86F
SIOUX FALLS    MOSUNNY   71  30  21 SW12G17   29.92F
OMAHA          SUNNY     73  31  21 S7        29.96F
GRAND ISLAND   SUNNY     74  28  18 S10G17    29.97F
KANSAS CITY    SUNNY     74  32  21 E8        29.99F
WICHITA        SUNNY     82  30  15 NE13      29.95F
HAYS           SUNNY     77  30  18 E13       29.99F
LIBERAL        SUNNY     79  34  19 SE15      30.00F
GOODLAND       SUNNY     77  22  13 S12       29.97F
$$



USA.gov is the U.S. government's official web portal to all federal, state and local government web resources and services.